Weather Service Report


069 
ASUS45 KABQ 281810
RWRNM 
WEATHER ROUNDUP FOR NEW MEXICO
NATIONAL WEATHER SERVICE ALBUQUERQUE NM
1200 PM MDT THU AUG 28 2014

NOTE: "FAIR" MEANS FEW OR NO CLOUDS BELOW 12,000 FEET AGL WITH NO
       SIGNIFICANT WEATHER OR OBSTRUCTIONS TO VISION.

      THIS PRODUCT IS RELEASED AS TWO VERSIONS.  ONE VERSION NEAR
      THE TOP OF THE HOUR CONTAINING PRELIMINARY DATA FROM ALBUQUERQUE
      AND OTHER STATIONS.  A FINAL VERSION WITH ADDITIONAL DATA IS 
      ISSUED ABOUT 10 MINUTES AFTER THE HOUR.
 
NMZ501-503-504-510>518-281900-
NORTHWEST PLATEAU/NORTHCENTRAL MOUNTAINS
  
CITY           SKY/WX    TMP DP  RH WIND       PRES   REMARKS
FARMINGTON     SUNNY     73  47  39 W16G25    30.23F                  
6HR MIN TEMP:  48; 6HR MAX TEMP:  73;                                

LOS ALAMOS     PTSUNNY   65  42  44 NE7       30.31S                  
SANTA FE       MOSUNNY   68  41  37 CALM      30.24F                  
6HR MIN TEMP:  48; 6HR MAX TEMP:  71;                                

ANGEL FIRE     MOCLDY    60  39  46 W16       30.33F                  

$$
NMZ402-403-502-505>509-281900-
WESTCENTRAL MOUNTAINS/SOUTHWEST MOUNTAINS
  
CITY           SKY/WX    TMP DP  RH WIND       PRES   REMARKS
GALLUP         MOSUNNY   74  41  30 N5        30.29F                  
6HR MIN TEMP:  43; 6HR MAX TEMP:  75;                                

SILVER CITY    SUNNY     81  41  24 N5        30.23F                  

$$
NMZ407-409-411-412-281900-
SOUTHERN DESERTS
  
CITY           SKY/WX    TMP DP  RH WIND       PRES   REMARKS
LORDSBURG      FAIR      82  50  32 W6        30.15F                  
DEMING         SUNNY     86  48  26 VRB5      30.13F                  
6HR MIN TEMP:  60; 6HR MAX TEMP:  86;                                

LAS CRUCES     SUNNY     84  44  25 NE3       30.15F                  
HOLLOMAN AFB   SUNNY     85  54  34 NW10      30.10F                  
ALAMOGORDO     SUNNY     84  48  28 NW9G17    30.12F                  
T OR C         SUNNY     81  48  31 NE6       30.17F                  
6HR MIN TEMP:  62; 6HR MAX TEMP:  81;                                


$$
NMZ519>523-281900-
CENTRAL VALLEYS/CENTRAL HIGHLANDS
  
CITY           SKY/WX    TMP DP  RH WIND       PRES   REMARKS
ALBUQUERQUE    MOSUNNY   75  43  31 N8        30.22F                  
6HR MIN TEMP:  59; 6HR MAX TEMP:  76;                                

DOUBLE EAGLE   MOSUNNY   73  45  35 NW12      30.25F                  
MORIARTY ARPT  FAIR      73  42  31 NW20      30.25S                  
6HR MIN TEMP:  47; 6HR MAX TEMP:  73;                                

CLINES CORNERS SUNNY     70  40  33 W24G30    30.26F                  
6HR MIN TEMP:  49; 6HR MAX TEMP:  70;                                

BELEN          FAIR      77  45  32 N3        30.21F                  
6HR MIN TEMP:  51; 6HR MAX TEMP:  77;                                

SOCORRO        FAIR      79  46  30 NE8       30.18F                  
6HR MIN TEMP:  60; 6HR MAX TEMP:  79;                                


$$
NMZ524>526-539-540-281900-
SOUTHCENTRAL MOUNTAINS
  
CITY           SKY/WX    TMP DP  RH WIND       PRES   REMARKS
RUIDOSO        SUNNY     73  45  35 NW13G24   30.30F                  

$$
NMZ527>531-281900-
NORTHEAST HIGHLANDS/NORTHEAST PLAINS
  
CITY           SKY/WX    TMP DP  RH WIND       PRES   REMARKS
LAS VEGAS      MOSUNNY   74  39  28 MISG      30.22F                  
6HR MIN TEMP:  49; 6HR MAX TEMP:  74;                                

RATON          PTSUNNY   74  42  31 SE9       30.17F                  
6HR MIN TEMP:  46; 6HR MAX TEMP:  74;                                

CLAYTON        MOSUNNY   76  47  35 E5        30.12S                  
6HR MIN TEMP:  61; 6HR MAX TEMP:  78;                                


$$
NMZ532>537-281900-
EASTCENTRAL PLAINS
  
CITY           SKY/WX    TMP DP  RH WIND       PRES   REMARKS
TUCUMCARI      SUNNY     83  42  23 VRB3      30.05F                  
6HR MIN TEMP:  62; 6HR MAX TEMP:  84;                                

CANNON AFB     SUNNY     85  46  25 W15       30.07F                  
6HR MIN TEMP:  64; 6HR MAX TEMP:  85;                                

CLOVIS AIRPORT   N/A     88  46  23 NW12G17   30.08F                  

$$
NMZ028-029-538-281900-
SOUTHEAST PLAINS
  
CITY           SKY/WX    TMP DP  RH WIND       PRES   REMARKS
ROSWELL        SUNNY     88  51  28 VRB3      30.05F                  
6HR MIN TEMP:  66; 6HR MAX TEMP:  88;                                

CARLSBAD       PTSUNNY   90  58  33 N8        30.02F                  
6HR MIN TEMP:  68; 6HR MAX TEMP:  90;                                

HOBBS          MOSUNNY   90  55  31 S10       30.05F                  


$$

Return to Home page


Western Regional Climate Center, wrcc@dri.edu